User: anonymous   Login
Location: Kalberh�ni
(46.4610°N, 7.2453°E)
Time: 07:13:20
(UTC+00:00)
Language:

Cosmos 1455 - Orbit

View from above orbital plane
View from above orbital plane
View from above satellite
View from above satellite

Ground track
Ground track

The orbit data is extracted from the following two-line orbital elements,

1 14032U 83037A   21265.19493199  .00001017  00000-0  46914-4 0  9999
2 14032  82.5183 346.5362 0015141 258.4892 101.4642 15.19024133 97494
Epoch (UTC): 22 September 2021 04:40:42
Eccentricity: 0.0015141
inclination: 82.5183°
perigee height: 498 km
apogee height: 519 km
right ascension of ascending node: 346.5362°
argument of perigee: 258.4892°
revolutions per day: 15.19024133
mean anomaly at epoch: 101.4642°
orbit number at epoch: 9749

The dashed part of the orbit path shows where the satellite is in the earth's shadow,  

DLR